Content
SEND FEEDBACK

Daily
Averages
Monthly
Summary
United States of America

KALAHEO, HAWAII


Home > North America > United States > Hawaii
Elevation: 640 meters     Latitude: 21 58N     Longitude: 159 31W

WEATHER
 
SELECT A DAY
Number of Records: 218,966;   Date Range: 1/1/95 - 7/7/14
 
SHARE

PRINT THIS DATA

[ ← Previous Day ]
WEATHER ALMANAC - 5 FEBRUARY, 2013
[ Next Day → ]
[ °F ]   °C
Weather ElementAverageHighLow
Temperature21.4 °C24 °C (12:04 pm)20 °C (3:17 am)
Dewpoint16.9 °C18.3 °C (11:53 am)15 °C (5:53 pm)
Humidity75.6 %88 % (3:17 am)69 % (12:04 pm)
Barometer1020 hPa1021.7 hPa (10:07 am)1017.9 hPa (3:53 pm)
Wind Speed28.2 km/h40.7 km/h (9:53 am)
Wind Gust50.1 km/h (9:48 am)
Weather ElementAverage
Visibility14.8 km
Wind DirectionENE (56.3 °)

Weather ElementTotal
Precipitation1.78 mm
Cooling Degree Days3.7 (Base 18.3)
Growing Degree Days12 (Base 10)
Averaged from 40 records on 5 February, 2013
WEATHER CONDITIONS BREAKOUT
WIND DIRECTION BREAKOUT
WEATHER BY HOUR - 5 FEBRUARY, 2013
[ °F ]   °C
Local TimeTemperatureDewpointHumidityBarometerVisibilityWind DirectionWind SpeedGust SpeedPrecipitationEventsConditions
1:27 AM22 °C18 °C78 %1020.7 hPa9.7 kmEast (80°)29.6 km/h44.4 km/h0.25 mmRainLight Rain
1:35 AM22 °C18 °C78 %1020.3 hPa16.1 kmENE (70°)31.5 km/h38.9 km/h0.25 mmOvercast
1:53 AM21.5 °C17.8 °C79 %1020.3 hPa9.7 kmENE (60°)24.1 km/h0.25 mmRainLight Rain
2:53 AM20.5 °C17.2 °C81 %1019.3 hPa16.1 kmEast (80°)33.3 km/h42.6 km/h0 mmOvercast
3:17 AM20 °C18 °C88 %1019.6 hPa8 kmENE (70°)29.6 km/h42.6 km/h0.25 mmRainLight Rain
3:53 AM20.3 °C17.8 °C85 %1019.3 hPa16.1 kmENE (70°)29.6 km/h0.25 mmOvercast
4:53 AM20.7 °C17.2 °C80 %1019 hPa16.1 kmENE (60°)31.5 km/h40.7 km/h0 mmPartly Cloudy
5:53 AM21 °C16.7 °C76 %1019 hPa16.1 kmNE (50°)27.8 km/h40.7 km/hPartly Cloudy
6:53 AM21 °C16.7 °C76 %1019.6 hPa16.1 kmENE (60°)27.8 km/hMostly Cloudy
7:53 AM20 °C17.1 °C83 %1020 hPa6.4 kmENE (60°)22.2 km/h46.3 km/h0.25 mmRainLight Rain
8:53 AM21 °C17.2 °C79 %1020.3 hPa16.1 kmNE (50°)33.3 km/h46.3 km/h0.25 mmOvercast
9:48 AM21 °C17 °C78 %1021.3 hPa6.4 kmENE (60°)38.9 km/h50.1 km/h0 mmRainLight Rain
9:53 AM21 °C17.2 °C79 %1021.3 hPa14.5 kmENE (70°)40.7 km/h50.1 km/h0 mmOvercast
10:07 AM20 °C17 °C83 %1021.7 hPa4.8 kmENE (70°)35.2 km/h46.3 km/h0 mmRainLight Rain
10:15 AM20 °C17 °C83 %1021.7 hPa16.1 kmEast (80°)37 km/h44.4 km/h0 mmRainLight Rain
10:29 AM20 °C17 °C83 %1021.3 hPa16.1 kmEast (100°)16.7 km/h0 mmOvercast
10:53 AM20 °C17.2 °C84 %1021 hPa16.1 kmENE (60°)24.1 km/h0 mmOvercast
11:53 AM23 °C18.3 °C75 %1020.3 hPa16.1 kmENE (60°)29.6 km/hClear
12:04 PM24 °C18 °C69 %1020.3 hPa16.1 kmENE (60°)31.5 km/h40.7 km/hMostly Cloudy
12:30 PM22 °C17 °C73 %1020.3 hPa16.1 kmNE (50°)38.9 km/hOvercast
12:53 PM22.2 °C16.7 °C71 %1019.6 hPa16.1 kmNorth (10°)24.1 km/hOvercast
1:53 PM23.3 °C17.8 °C71 %1019 hPa16.1 kmNNE (30°)24.1 km/h0 mmOvercast
2:02 PM23 °C17 °C69 %1019 hPa16.1 kmNE (40°)27.8 km/hOvercast
2:53 PM22 °C17.8 °C77 %1018.6 hPa16.1 kmNNE (30°)20.4 km/h0 mmMostly Cloudy
3:53 PM23 °C17.8 °C72 %1017.9 hPa16.1 kmENE (60°)22.2 km/h35.2 km/hClear
4:53 PM21.7 °C16.1 °C70 %1018.3 hPa16.1 kmENE (60°)31.5 km/hOvercast
5:53 PM20.6 °C15 °C70 %1019 hPa16.1 kmNNE (20°)22.2 km/hOvercast
6:53 PM20.6 °C16.1 °C75 %1019.3 hPa16.1 kmNNE (30°)22.2 km/h29.6 km/hMostly Cloudy
7:53 PM21.1 °C16.7 °C76 %1019.6 hPa16.1 kmNE (50°)24.1 km/hClear
8:53 PM21.1 °C17.2 °C78 %1020 hPa16.1 kmNE (40°)25.9 km/hScattered Clouds
9:16 PM22 °C17 °C73 %1020.3 hPa16.1 kmNE (40°)25.9 km/hMostly Cloudy
9:41 PM22 °C16 °C69 %1020.7 hPa16.1 kmNE (50°)24.1 km/hOvercast
9:53 PM21.7 °C16.1 °C70 %1020.3 hPa16.1 kmNE (50°)22.2 km/hOvercast
10:36 PM22 °C16 °C69 %1020.7 hPa16.1 kmENE (60°)25.9 km/hMostly Cloudy
10:43 PM22 °C17 °C73 %1020.7 hPa16.1 kmENE (60°)25.9 km/hMostly Cloudy
10:51 PM22 °C16 °C69 %1020.7 hPa16.1 kmENE (60°)27.8 km/hMostly Cloudy
10:53 PM21.7 °C16.1 °C70 %1020.3 hPa16.1 kmENE (60°)29.6 km/hMostly Cloudy
11:06 PM22 °C16 °C69 %1020.7 hPa16.1 kmNE (50°)27.8 km/hMostly Cloudy
11:32 PM22 °C16 °C69 %1020.3 hPa16.1 kmENE (60°)31.5 km/hMostly Cloudy
11:53 PM21.7 °C16.7 °C73 %1020 hPa16.1 kmENE (70°)24.1 km/hScattered Clouds
Hourly data recorded from PHLI, located 0 kilometers away from Kalaheo, Hawaii







STORIES FROM OUR PARTNERS